This is the latest recevied weather packets stored in our database for station/object DG4DAA-13. If no packets are shown the sender has not sent any weather packets the latest 1 day(s).
| Time | Temp. | Humidity | Pressure | Rain* | Wind** | Luminosity | Snow |
|---|---|---|---|---|---|---|---|
| 1778090917 | 8.33° C | 94% | 1011.1 hPa | 0.25 mm | - | - | - |
| 1778087297 | 8.33° C | 94% | 1010.6 hPa | 1.02 mm | - | - | - |
| 1778085497 | 8.89° C | 94% | 1010.4 hPa | 1.02 mm | - | - | - |
| 1778083697 | 8.89° C | 94% | 1010.4 hPa | 1.27 mm | - | - | - |
| 1778081897 | 8.89° C | 94% | 1010.4 hPa | 2.03 mm | - | - | - |
| 1778080097 | 8.33° C | 94% | 1010.4 hPa | 2.54 mm | - | - | - |
| 1778072930 | 8.33° C | 94% | 1010 hPa | 1.02 mm | - | - | - |
| 1778069297 | 8.33° C | 94% | 1009.5 hPa | 0.76 mm | - | - | - |
| 1778063900 | 7.78° C | 94% | 1009.3 hPa | 1.02 mm | - | - | - |
| 1778056698 | 9.44° C | 94% | 1008.1 hPa | 1.27 mm | - | - | - |
| 1778054898 | 8.89° C | 94% | 1008 hPa | 1.27 mm | - | - | - |
| 1778053098 | 8.89° C | 94% | 1007.8 hPa | 1.27 mm | - | - | - |
| 1778051298 | 8.89° C | 94% | 1007.7 hPa | 2.54 mm | - | - | - |
| 1778049498 | 8.89° C | 94% | 1007.6 hPa | 2.29 mm | - | - | - |
| 1778047698 | 8.89° C | 94% | 1007.4 hPa | 1.27 mm | - | - | - |
| 1778045898 | 8.89° C | 94% | 1007.3 hPa | 3.05 mm | - | - | - |
| 1778044098 | 8.89° C | 94% | 1007.4 hPa | 3.05 mm | - | - | - |
| 1778042298 | 8.89° C | 94% | 1007.4 hPa | 1.27 mm | - | - | - |
| 1778040498 | 9.44° C | 94% | 1007.3 hPa | 1.27 mm | - | - | - |
| 1778038698 | 9.44° C | 93% | 1007.3 hPa | 1.27 mm | - | - | - |
| 1778036898 | 9.44° C | 93% | 1007.4 hPa | 1.27 mm | - | - | - |
| 1778035098 | 10° C | 93% | 1007.7 hPa | 2.54 mm | - | - | - |
| 1778033298 | 10.56° C | 94% | 1007.8 hPa | 3.3 mm | - | - | - |
| 1778026099 | 11.11° C | 93% | 1008.4 hPa | 4.06 mm | - | - | - |
| 1778024299 | 11.11° C | 93% | 1008.8 hPa | 3.81 mm | - | - | - |
* Rain latest hour (hover to see other rain measurements)
** Current wind speed in m/s (hover to see current wind gust speed)